KB1WCR Weather Reports


Display with metric or nautical units.
time (UTC)temp
F
wind
direction
speed
MPH
gust
MPH
rain 1hr
in
rain 24hr
in
rain mn
in
humidity
%
barometer
mb
20260505225156 68 216 3.0 6.0 0.00 0.00 0.00 63 1006.3
20260505224651 68 222 4.0 4.0 0.00 0.00 0.00 62 1006.5
20260505224149 68 229 6.0 7.0 0.00 0.00 0.00 61 1004.7
20260505223646 68 300 3.0 3.0 0.00 0.00 0.00 61 1004.3
20260505223142 68 229 3.0 4.0 0.00 0.00 0.00 61 1004.2
20260505222633 69 236 7.0 10.0 0.00 0.00 0.00 60 1004.3
20260505222129 69 211 3.0 6.0 0.00 0.00 0.00 60 1004.1
20260505221626 69 187 7.0 10.0 0.00 0.00 0.00 59 1004.1
20260505221123 69 187 3.0 3.0 0.00 0.00 0.00 60 1004.1
20260505220621 70 237 3.0 4.0 0.00 0.00 0.00 59 1004.1
20260505220118 70 126 4.0 9.0 0.00 0.00 0.00 58 1004.3
20260505215616 70 210 2.0 4.0 0.00 0.00 0.00 59 1004.0
20260505215114 70 158 3.0 4.0 0.00 0.00 0.00 59 1004.0
20260505214612 70 167 1.0 2.0 0.00 0.00 0.00 59 1003.8
20260505214108 71 223 7.0 10.0 0.00 0.00 0.00 58 1004.0
20260505213606 72 268 1.0 1.0 0.00 0.00 0.00 56 1003.8
20260505213102 72 144 6.0 8.0 0.00 0.00 0.00 55 1003.7
20260505212558 72 204 6.0 8.0 0.00 0.00 0.00 55 1003.8
20260505212056 72 186 7.0 10.0 0.00 0.00 0.00 55 1003.6
20260505211553 73 201 6.0 8.0 0.00 0.00 0.00 55 1003.5
20260505211050 72 190 5.0 6.0 0.00 0.00 0.00 55 1003.2
20260505210546 73 208 4.0 6.0 0.00 0.00 0.00 54 1003.5
20260505210044 73 204 3.0 4.0 0.00 0.00 0.00 55 1003.5
20260505205541 73 241 0.0 1.0 0.00 0.00 0.00 55 1003.5
20260505205038 74 221 4.0 6.0 0.00 0.00 0.00 55 1003.4
20260505204536 75 28 4.0 6.0 0.00 0.00 0.00 53 1003.5
20260505204033 74 244 3.0 3.0 0.00 0.00 0.00 54 1003.4
20260505203529 74 215 6.0 8.0 0.00 0.00 0.00 55 1003.6
20260505203027 74 210 3.0 3.0 0.00 0.00 0.00 53 1003.7
20260505202523 74 198 6.0 11.0 0.00 0.00 0.00 54 1003.7
20260505202018 74 333 5.0 8.0 0.00 0.00 0.00 54 1003.6
20260505201516 74 114 2.0 3.0 0.00 0.00 0.00 57 1003.5
20260505201013 74 220 4.0 7.0 0.00 0.00 0.00 56 1003.7
20260505200511 73 211 7.0 10.0 0.00 0.00 0.00 55 1003.9
20260505200008 74 145 6.0 15.0 0.00 0.00 0.00 55 1003.8
20260505195504 75 204 6.0 8.0 0.00 0.00 0.00 54 1003.9
20260505195001 74 174 7.0 9.0 0.00 0.00 0.00 54 1003.9
20260505194459 75 237 8.0 11.0 0.00 0.00 0.00 53 1004.1
20260505193958 75 238 3.0 6.0 0.00 0.00 0.00 53 1004.1
20260505193456 76 191 9.0 15.0 0.00 0.00 0.00 51 1004.2
20260505192953 76 187 4.0 6.0 0.00 0.00 0.00 51 1004.0
20260505192452 76 222 4.0 4.0 0.00 0.00 0.00 52 1004.0
20260505191949 76 111 5.0 7.0 0.00 0.00 0.00 51 1004.3
20260505191448 76 232 9.0 11.0 0.00 0.00 0.00 50 1004.3
20260505190944 77 147 7.0 9.0 0.00 0.00 0.00 50 1004.4
20260505190439 78 252 8.0 11.0 0.00 0.00 0.00 50 1004.6
20260505185935 77 212 3.0 3.0 0.00 0.00 0.00 53 1004.6
20260505185433 77 271 6.0 8.0 0.00 0.00 0.00 51 1004.7
20260505184929 77 126 4.0 6.0 0.00 0.00 0.00 51 1004.7
20260505184426 78 133 1.0 1.0 0.00 0.00 0.00 51 1004.7
20260505183922 77 176 4.0 6.0 0.00 0.00 0.00 53 1004.8
20260505183419 78 114 1.0 2.0 0.00 0.00 0.00 52 1004.9
20260505182916 76 240 5.0 9.0 0.00 0.00 0.00 54 1004.8
20260505182413 76 158 3.0 4.0 0.00 0.00 0.00 53 1004.6
20260505181909 77 282 3.0 4.0 0.00 0.00 0.00 54 1005.0
20260505181407 77 223 4.0 6.0 0.00 0.00 0.00 56 1005.0
20260505180903 76 222 4.0 7.0 0.00 0.00 0.00 55 1005.0
20260505180400 75 236 1.0 1.0 0.00 0.00 0.00 57 1005.0
20260505175856 74 251 1.0 2.0 0.00 0.00 0.00 57 1005.1
20260505175353 75 84 3.0 4.0 0.00 0.00 0.00 56 1005.1
20260505174849 75 230 2.0 3.0 0.00 0.00 0.00 54 1005.3
20260505174347 75 221 3.0 4.0 0.00 0.00 0.00 56 1005.3
20260505173843 75 200 4.0 6.0 0.00 0.00 0.00 55 1005.0
20260505173339 76 310 5.0 6.0 0.00 0.00 0.00 57 1005.3
20260505172836 76 197 4.0 7.0 0.00 0.00 0.00 53 1005.5
20260505172334 77 349 3.0 4.0 0.00 0.00 0.00 52 1005.4
20260505171834 77 230 2.0 2.0 0.00 0.00 0.00 53 1005.5
20260505171331 77 272 5.0 6.0 0.00 0.00 0.00 52 1005.5
20260505170827 78 235 3.0 4.0 0.00 0.00 0.00 51 1005.7
20260505170324 77 164 3.0 3.0 0.00 0.00 0.00 55 1005.8
20260505165820 77 232 2.0 3.0 0.00 0.00 0.00 53 1006.0
20260505165315 77 145 3.0 4.0 0.00 0.00 0.00 53 1005.9
20260505164811 77 271 6.0 7.0 0.00 0.00 0.00 50 1006.0
20260505164308 79 189 6.0 7.0 0.00 0.00 0.00 50 1006.1
20260505163806 78 222 4.0 4.0 0.00 0.00 0.00 48 1006.3
20260505163305 78 239 4.0 6.0 0.00 0.00 0.00 48 1006.3
20260505162803 78 255 3.0 3.0 0.00 0.00 0.00 50 1006.3
20260505162259 77 272 4.0 6.0 0.00 0.00 0.00 49 1006.5
20260505161756 77 51 6.0 9.0 0.00 0.00 0.00 50 1006.8
20260505161253 76 282 7.0 8.0 0.00 0.00 0.00 50 1006.8
20260505160750 76 180 3.0 4.0 0.00 0.00 0.00 51 1007.0
20260505160248 75 275 3.0 3.0 0.00 0.00 0.00 53 1007.2
20260505153227 74 205 3.0 4.0 0.00 0.00 0.00 54 1007.6
20260505152724 74 302 4.0 4.0 0.00 0.00 0.00 50 1007.5
20260505152221 74 230 5.0 7.0 0.00 0.00 0.00 51 1007.6
20260505151715 73 241 1.0 2.0 0.00 0.00 0.00 54 1007.6
20260505151213 74 209 3.0 3.0 0.00 0.00 0.00 52 1008.0
20260505150709 73 228 2.0 3.0 0.00 0.00 0.00 53 1007.9
20260505150207 72 194 2.0 2.0 0.00 0.00 0.00 52 1007.9
20260505140639 68 267 1.0 2.0 0.00 0.00 0.00 56 1007.3
20260505140137 68 215 2.0 2.0 0.00 0.00 0.00 56 1007.3
20260505124550 63 234 4.0 4.0 0.00 0.00 0.00 62 1008.0
20260505124046 63 286 2.0 3.0 0.00 0.00 0.00 64 1007.9
20260505123543 62 216 3.0 4.0 0.00 0.00 0.00 65 1007.8
20260505123039 61 228 2.0 3.0 0.00 0.00 0.00 68 1007.9
20260505122536 61 222 2.0 3.0 0.00 0.00 0.00 67 1007.9
20260505122033 61 188 4.0 6.0 0.00 0.00 0.00 65 1007.7
20260505121529 60 197 2.0 2.0 0.00 0.00 0.00 69 1007.7
20260505121026 60 243 2.0 2.0 0.00 0.00 0.00 68 1007.9
20260505120522 60 204 3.0 4.0 0.00 0.00 0.00 68 1008.0
20260505120018 59 217 1.0 2.0 0.00 0.00 0.00 69 1008.0
20260505115513 59 226 1.0 2.0 0.00 0.00 0.00 69 1008.2
20260505115011 58 242 3.0 3.0 0.00 0.00 0.00 69 1008.2
20260505114508 58 209 2.0 2.0 0.00 0.00 0.00 72 1008.3
20260505114004 57 282 2.0 2.0 0.00 0.00 0.00 71 1008.2
20260505113500 57 256 1.0 1.0 0.00 0.00 0.00 72 1008.2
20260505112956 57 286 2.0 2.0 0.00 0.00 0.00 72 1008.2
20260505112453 57 322 0.0 0.0 0.00 0.00 0.00 74 1008.5
20260505111950 56 125 0.0 1.0 0.00 0.00 0.00 74 1008.5
20260505111444 55 240 1.0 2.0 0.00 0.00 0.00 74 1008.5
20260505110941 56 290 0.0 0.0 0.00 0.00 0.00 75 1008.1
20260505110438 55 298 0.0 0.0 0.00 0.00 0.00 76 1008.4
20260505101909 46 289 0.0 0.0 0.00 0.00 0.00 89 1008.5
20260505101403 46 293 0.0 0.0 0.00 0.00 0.00 88 1008.3
20260505100859 47 296 0.0 0.0 0.00 0.00 0.00 88 1008.5
20260505100356 46 302 0.0 0.0 0.00 0.00 0.00 88 1008.3
20260505095852 46 288 0.0 0.0 0.00 0.00 0.00 89 1008.2
20260505095350 45 303 0.0 0.0 0.00 0.00 0.00 90 1008.2
20260505094845 45 300 0.0 0.0 0.00 0.00 0.00 89 1008.4
20260505094342 45 287 0.0 0.0 0.00 0.00 0.00 89 1008.4
20260505093838 45 282 0.0 0.0 0.00 0.00 0.00 89 1008.1
20260505093336 46 280 0.0 0.0 0.00 0.00 0.00 88 1008.4
20260505092833 46 290 0.0 0.0 0.00 0.00 0.00 87 1008.2
20260505092331 46 286 0.0 0.0 0.00 0.00 0.00 87 1008.3
20260505091828 48 310 0.0 0.0 0.00 0.00 0.00 85 1008.3
20260505091326 47 353 0.0 0.0 0.00 0.00 0.00 86 1008.3
20260505090824 46 306 0.0 0.0 0.00 0.00 0.00 88 1008.6
20260505090322 45 302 0.0 0.0 0.00 0.00 0.00 89 1008.3
20260505085818 44 299 0.0 0.0 0.00 0.00 0.00 90 1008.3
20260505085317 45 290 0.0 0.0 0.00 0.00 0.00 89 1008.3
20260505084814 45 294 0.0 0.0 0.00 0.00 0.00 89 1008.5
20260505084313 45 301 0.0 0.0 0.00 0.00 0.00 89 1008.4
20260505083809 46 282 0.0 0.0 0.00 0.00 0.00 89 1008.7
20260505083306 46 296 0.0 0.0 0.00 0.00 0.00 87 1008.7
20260505082803 46 329 0.0 0.0 0.00 0.00 0.00 86 1008.6
20260505082259 46 311 0.0 0.0 0.00 0.00 0.00 86 1008.6
20260505081755 47 306 0.0 0.0 0.00 0.00 0.00 84 1008.7
20260505081252 47 313 0.0 0.0 0.00 0.00 0.00 84 1008.7
20260505080749 47 307 0.0 0.0 0.00 0.00 0.00 83 1008.8
20260505080245 48 300 0.0 0.0 0.00 0.00 0.00 82 1008.7
20260505075740 48 336 0.0 0.0 0.00 0.00 0.00 81 1008.9
20260505075238 49 139 1.0 2.0 0.00 0.00 0.00 80 1008.7
20260505074735 50 313 0.0 0.0 0.00 0.00 0.00 79 1008.9
20260505074232 50 356 0.0 0.0 0.00 0.00 0.00 77 1008.7
20260505073730 51 357 0.0 0.0 0.00 0.00 0.00 76 1008.6
20260505073227 51 344 0.0 1.0 0.00 0.00 0.00 76 1008.8
20260505072724 51 309 0.0 1.0 0.00 0.00 0.00 75 1008.8
20260505072220 52 301 0.0 0.0 0.00 0.00 0.00 74 1008.7
20260505071716 53 283 0.0 0.0 0.00 0.00 0.00 72 1008.6
20260505071213 53 168 0.0 0.0 0.00 0.00 0.00 71 1008.7
20260505070711 53 287 0.0 0.0 0.00 0.00 0.00 70 1008.6
20260505070207 54 317 0.0 1.0 0.00 0.00 0.00 69 1008.6
20260505065703 54 303 0.0 0.0 0.00 0.00 0.00 69 1008.6
20260505065200 55 234 0.0 0.0 0.00 0.00 0.00 68 1008.4
20260505064656 55 246 1.0 1.0 0.00 0.00 0.00 67 1008.6
20260505064155 56 275 1.0 1.0 0.00 0.00 0.00 66 1008.4
20260505063652 56 228 1.0 2.0 0.00 0.00 0.00 65 1008.7
20260505063148 56 210 2.0 3.0 0.00 0.00 0.00 65 1008.5
20260505062644 56 248 1.0 2.0 0.00 0.00 0.00 65 1008.5
20260505062142 57 220 1.0 2.0 0.00 0.00 0.00 64 1008.6
20260505061639 56 260 1.0 1.0 0.00 0.00 0.00 66 1008.6
20260505061137 56 219 1.0 1.0 0.00 0.00 0.00 65 1008.6
20260505060634 57 230 1.0 1.0 0.00 0.00 0.00 64 1008.5
20260505060130 57 195 2.0 2.0 0.00 0.00 0.00 64 1008.5
20260505055626 57 209 2.0 2.0 0.00 0.00 0.00 63 1008.7
20260505055123 57 230 2.0 2.0 0.00 0.00 0.00 63 1008.4
20260505054620 57 241 2.0 2.0 0.00 0.00 0.00 63 1008.6
20260505054118 58 220 3.0 3.0 0.00 0.00 0.00 62 1008.6
20260505053615 58 229 2.0 2.0 0.00 0.00 0.00 62 1008.7
20260505053111 58 240 2.0 2.0 0.00 0.00 0.00 61 1008.4
20260505052608 58 231 1.0 1.0 0.00 0.00 0.00 61 1008.2
20260505052106 58 209 2.0 3.0 0.00 0.00 0.00 62 1008.5
20260505051603 58 235 2.0 2.0 0.00 0.00 0.00 62 1008.4
20260505051101 58 245 2.0 3.0 0.00 0.00 0.00 62 1008.5
20260505050558 58 246 1.0 1.0 0.00 0.00 0.00 62 1008.6
20260505041526 59 223 2.0 3.0 0.00 0.00 0.00 62 1008.1
20260505041024 58 235 2.0 3.0 0.00 0.00 0.00 61 1008.0
20260505040521 59 209 2.0 2.0 0.00 0.00 0.00 62 1007.9
20260505040018 58 206 3.0 3.0 0.00 0.00 0.00 61 1008.0
20260505035514 58 214 2.0 2.0 0.00 0.00 0.00 61 1007.8
20260505035011 58 213 2.0 3.0 0.00 0.00 0.00 61 1008.0
20260505034507 58 232 2.0 2.0 0.00 0.00 0.00 61 1007.9
20260505034005 58 223 2.0 3.0 0.00 0.00 0.00 61 1007.9
20260505033501 57 250 3.0 3.0 0.00 0.00 0.00 63 1007.9
20260505033000 57 220 2.0 3.0 0.00 0.00 0.00 62 1007.8
20260505032457 57 198 3.0 3.0 0.00 0.00 0.00 63 1007.8
20260505031953 57 200 2.0 3.0 0.00 0.00 0.00 64 1007.8
20260505031450 56 215 4.0 4.0 0.00 0.00 0.00 64 1007.8
20260505030947 55 275 1.0 1.0 0.00 0.00 0.00 68 1007.8
20260505030443 52 280 1.0 1.0 0.00 0.00 0.00 75 1007.5
20260505025938 51 244 0.0 0.0 0.00 0.00 0.00 78 1007.8
20260505025435 51 61 1.0 1.0 0.00 0.00 0.00 78 1007.7
20260505024934 51 16 0.0 0.0 0.00 0.00 0.00 77 1007.8
20260505024431 51 247 0.0 0.0 0.00 0.00 0.00 77 1007.8
20260505023928 51 313 0.0 0.0 0.00 0.00 0.00 77 1007.6
20260505023425 51 292 0.0 0.0 0.00 0.00 0.00 78 1007.6
20260505022923 50 305 0.0 0.0 0.00 0.00 0.00 78 1007.7
20260505022421 50 294 0.0 0.0 0.00 0.00 0.00 77 1007.5
20260505021917 50 288 0.0 0.0 0.00 0.00 0.00 78 1007.5
20260505021413 50 299 0.0 0.0 0.00 0.00 0.00 78 1007.5
20260505020909 51 240 0.0 0.0 0.00 0.00 0.00 76 1007.3
20260505020405 50 324 0.0 0.0 0.00 0.00 0.00 76 1007.4
20260505015902 51 290 0.0 0.0 0.00 0.00 0.00 76 1007.2
20260505015359 51 294 0.0 0.0 0.00 0.00 0.00 76 1007.3
20260505014856 51 291 0.0 0.0 0.00 0.00 0.00 75 1007.3
20260505014353 51 313 0.0 0.0 0.00 0.00 0.00 74 1007.2
20260505013850 51 286 0.0 0.0 0.00 0.00 0.00 74 1007.2
20260505013347 51 299 0.0 0.0 0.00 0.00 0.00 73 1007.1
20260505012845 52 298 0.0 0.0 0.00 0.00 0.00 73 1007.0
20260505012343 52 296 0.0 0.0 0.00 0.00 0.00 73 1007.0
20260505011839 52 303 0.0 0.0 0.00 0.00 0.00 71 1006.8
20260505011336 52 305 0.0 0.0 0.00 0.00 0.00 70 1007.0
20260505010832 52 309 0.0 0.0 0.00 0.00 0.00 68 1006.8
20260505010327 53 298 0.0 0.0 0.00 0.00 0.00 70 1006.8
20260505005824 53 290 0.0 0.0 0.00 0.00 0.00 70 1006.8
20260505005321 53 296 0.0 0.0 0.00 0.00 0.00 68 1006.7
20260505004819 53 292 0.0 0.0 0.00 0.00 0.00 67 1006.6
20260505004315 54 285 0.0 0.0 0.00 0.00 0.00 65 1006.5
20260505003812 55 291 0.0 0.0 0.00 0.00 0.00 63 1006.4
20260505003309 56 296 0.0 0.0 0.00 0.00 0.00 63 1006.4
20260505002805 57 296 0.0 0.0 0.00 0.00 0.00 60 1006.3
20260505002304 58 285 0.0 0.0 0.00 0.00 0.00 57 1006.0
20260505001801 59 285 0.0 0.0 0.00 0.00 0.00 55 1006.2
20260505001257 60 284 0.0 0.0 0.00 0.00 0.00 53 1005.9
20260505000755 61 274 0.0 0.0 0.00 0.00 0.00 51 1006.0
20260505000252 62 277 0.0 0.0 0.00 0.00 0.00 49 1005.9
20260504235749 63 287 0.0 0.0 0.00 0.00 0.00 48 1006.2
20260504235245 64 274 0.0 0.0 0.00 0.00 0.00 46 1005.9
20260504234742 64 300 2.0 2.0 0.00 0.00 0.00 45 1005.8
20260504234240 64 272 2.0 2.0 0.00 0.00 0.00 45 1005.7
20260504233736 65 287 1.0 1.0 0.00 0.00 0.00 45 1005.8
20260504233232 66 269 1.0 1.0 0.00 0.00 0.00 44 1005.6
20260504232729 66 283 0.0 1.0 0.00 0.00 0.00 43 1005.6
20260504232226 66 264 2.0 2.0 0.00 0.00 0.00 42 1005.4
20260504231723 67 245 2.0 2.0 0.00 0.00 0.00 42 1005.5
20260504231219 67 259 1.0 1.0 0.00 0.00 0.00 42 1005.2
20260504230715 67 196 5.0 7.0 0.00 0.00 0.00 41 1005.4
20260504230214 68 236 2.0 2.0 0.00 0.00 0.00 40 1005.2
20260504225712 68 260 3.0 3.0 0.00 0.00 0.00 41 1005.0